SCP
0 0 0 0 0 0 0 0 0 0 0 0 0 0 0 0 0 0 0 0 0 0 0 0 0 0 0 0 0 0 0 0 0 0 0 0 0 0 0 0 0 0 0 0
0 0 0 0 0 0 0 0 0 0 -0 0 0 0 0 0 0 0 0 0 0 0 0 0 0 0 0 0 0 0 0 0 0 0 0 0 0 0 0 0 0 0 0 0
0 0 0 0 0 0 0 0 0 0 0 0 0 0 0 0 0 0 0 0 0 0 0 0 0 0 0 0 0 0 0 0 0 0 0 0 0 0 0 0 0 0 0 0
0 0 0 0 0 0 0 0 0 0 0 0 0 0 0 0 0 0 0 0 0 0 0 0 0 0 0 0 0 0 0 0 0 0 0 0 0 0 0 0 0 0 0 0
0 0 0 0 0 0 0 0 0 0 0 0 0 0 -0 0 0 0 0 0 0 0 0 0 0 0 0 0 0 0 0 0 0 0 0 0 0 0 0 0 0 0 0 0
0 0 0 0 0 0 0 0 -0 -0 0 0 0 0 0 0 0 0 0 0 0 0 0 0 0 0 0 0 0 0 0 0 0 0 0 0 0 0 0 0 0 0 0 0
0 0 0 0 0 0 0 0 0 0 0 0 0 0 0 0 0 0 0 0 0 0 0 0 0 0 0 0 0 0 0 0 0 0 0 0 0 0 0 0 0 0 0 0
0 0 0 0 0 0 0 0 0 0 0 -0 -0 0 0 0 0 0 0 0 0 0 0 0 0 0 0 0 0 0 0 0 0 0 0 0 0 0 0 0 0 0 0 0
0 0 0 0 0 0 0 0 0 0 0 0 0 0 0 0 0 0 0 0 0 0 0 0 0 0 0 0 0 0 0 0 0 0 0 0 0 0 0 0 0 0 0 0
0 0 0 0 0 0 0 0 0 0 0 0 0 0 0 0 0 0 0 0 0 0 0 0 0 0 0 0 0 0 0 0 0 0 0 0 0 0 0 0 0 0 0 0
0 0 0 0 0 0 0 0 0 0 0 0 0 0 0 0 0 0 0 0 0 0 0 0 0 0 0 0 0 0 0 0 0 0 0 0 0 0 0 0 0 0 0 0
0 0 0 0 0 0 -0 0 0 0 0 0 0 0 0 0 0 0 0 0 0 0 0 0 0 0 0 0 0 0 0 0 0 0 0 0 0 0 0 0 0 0 0 0
0 0 0 0 -0 -0 0 0 0 0 0 0 0 0 0 0 0 0 0 0 0 0 0 0 0 0 0 0 0 0 0 0 0 0 0 0 0 0 0 0 0 0 0 0
0 0 0 0 0 0 0 0 0 0 0 0 0 0 0 0 0 0 0 0 0 0 0 0 0 0 0 0 0 0 0 0 0 0 0 0 0 0 0 0 0 0 0 0
0 0 0 0 0 0 0 0 0 0 0 0 0 0 0 0 0 0 0 0 0 0 0 0 0 0 0 0 0 0 0 0 0 0 0 0 0 0 0 0 0 0 0 0
0 0 0 0 0 0 0 0 0 0 0 0 0 0 0 0 0 0 0 0 0 0 0 0 0 0 0 0 0 0 0 0 0 0 0 0 0 0 0 0 0 0 0 0
0 0 0 0 0 0 0 0 0 0 0 0 0 0 0 0 0 0 0 0 0 0 0 0 0 0 0 0 0 0 0 0 0 0 0 0 0 0 0 0 0 0 0 0
0 0 0 0 0 0 0 0 0 0 0 0 0 0 0 0 0 0 0 0 0 0 0 0 0 0 0 0 0 0 0 0 0 0 0 0 0 0 0 0 0 0 0 0
0 0 0 0 0 0 0 0 0 0 0 0 0 0 0 0 0 0 0 0 0 0 0 0 0 0 0 0 0 0 0 0 0 0 0 0 0 0 0 0 0 0 0 0
0 0 0 0 0 0 0 0 0 0 0 0 0 0 0 0 0 0 0 0 0 0 0 0 0 0 0 0 0 0 0 0 0 0 0 0 0 0 0 0 0 0 0 0
0 0 0 0 0 0 0 0 0 0 0 0 0 0 0 0 0 0 0 0 0 0 0 0 0 0 0 0 0 0 0 0 0 0 0 0 0 0 0 0 0 0 0 0
0 0 0 0 0 0 0 0 0 0 0 0 0 0 0 0 0 0 0 0 0 0 0 0 0 0 0 0 0 0 0 0 0 0 0 0 0 0 0 0 0 0 0 0
0 0 0 0 0 0 0 0 0 0 0 0 0 0 0 0 0 0 0 0 0 0 0 0 0 0 0 0 0 0 0 0 0 0 0 0 0 0 0 0 0 0 0 0
0 0 0 0 0 0 0 0 0 0 0 0 0 0 0 0 0 0 0 0 0 0 0 0 0 0 0 0 0 0 0 0 0 0 0 0 0 0 0 0 0 0 0 0
0 0 0 0 0 0 0 0 0 0 0 0 0 0 0 0 0 0 0 0 0 0 0 0 0 0 0 0 0 0 0 0 0 0 0 0 0 0 0 0 0 0 0 0
0 0 0 0 0 0 0 0 0 0 0 0 0 0 0 0 0 0 0 0 0 0 0 0 0 0 0 0 0 0 0 0 0 0 0 0 0 0 0 0 0 0 0 0
0 0 0 0 0 0 0 0 0 0 0 0 0 0 0 0 0 0 0 0 0 0 0 0 0 0 0 0 0 0 0 0 0 0 0 0 0 0 0 0 0 0 0 0
Wind_Speed_500mb
20 25 11 14 16 21 31 40 27 43 50 37 29 27 37 51 59 44 33 32 38 50 58 60 69 77 80 83 87 86 80 75 72 71 68 64 63 61 57 54 51 49 46 45
10 23 24 29 31 27 43 43 49 49 71 45 59 69 67 74 71 60 51 48 46 50 65 74 75 78 79 81 82 83 81 77 73 67 64 63 61 58 56 54 52 50 49 46
13 4 16 29 40 48 43 37 46 45 69 40 46 46 54 65 59 53 56 53 52 55 64 73 78 80 82 83 82 81 80 76 72 66 63 62 58 55 54 53 52 51 48 45
5 4 17 2 4 15 40 43 40 52 58 52 55 76 70 58 51 57 62 60 58 49 53 65 74 72 77 77 80 79 79 75 71 67 63 60 57 55 55 54 50 46 43 42
10 19 25 33 20 15 16 22 37 45 49 45 58 49 56 53 44 47 49 48 43 38 45 53 63 63 68 70 70 71 73 72 69 67 65 63 61 57 54 50 47 44 41 38
11 12 18 5 6 16 9 16 25 24 34 31 15 12 17 22 24 23 23 16 20 29 38 43 54 61 67 70 71 71 71 68 65 63 61 60 58 56 51 46 43 40 37 33
31 24 18 11 14 15 6 9 2 1 8 18 11 12 21 25 22 18 11 6 13 21 31 37 49 60 67 68 67 65 63 60 58 56 57 56 55 50 47 44 40 36 32 28
19 15 35 22 16 18 5 4 7 8 20 15 19 26 23 22 15 10 5 7 14 23 31 39 45 52 58 59 57 56 55 54 55 55 54 53 50 48 43 40 37 33 29 24
22 16 3 22 32 40 24 23 23 21 26 31 27 22 18 15 11 8 8 12 19 26 31 34 37 42 52 51 51 54 55 58 58 57 55 52 49 48 44 38 32 27 22 14
7 27 32 36 42 48 49 58 54 49 38 34 28 25 19 17 13 12 15 20 26 33 40 43 43 46 44 53 54 56 60 60 59 57 57 52 48 42 37 32 26 18 10 4
22 35 31 59 50 47 53 63 69 72 54 36 31 27 22 20 20 21 25 32 38 44 50 55 54 52 53 55 57 61 62 63 61 57 52 49 43 36 28 21 13 7 5 12
23 25 18 40 45 52 44 48 57 55 51 36 32 29 28 25 27 31 37 44 49 51 54 61 60 62 62 59 55 59 64 62 58 55 50 42 34 30 21 11 2 8 14 19
37 76 65 77 71 79 62 52 49 44 42 33 29 32 33 35 37 41 47 53 56 62 65 69 68 68 66 62 57 57 59 58 53 46 41 34 26 17 9 2 7 15 21 26
80 90 75 89 58 58 56 43 37 33 32 31 36 39 43 46 48 53 56 59 64 69 71 70 70 68 62 57 54 53 52 49 43 38 30 22 15 8 6 9 15 20 27 35
89 90 79 70 58 56 52 47 40 38 35 35 36 43 48 55 62 63 63 66 69 69 71 71 71 70 60 53 51 50 46 41 32 26 19 12 7 6 13 20 28 36 42 44
53 52 63 67 69 58 51 48 50 48 48 48 49 52 58 63 66 64 65 67 72 75 73 70 69 66 57 50 46 41 35 28 20 14 8 1 7 15 23 30 36 41 45 48
25 29 40 48 54 53 52 49 53 57 57 60 63 61 64 71 76 77 76 71 72 74 70 66 67 61 53 44 36 30 24 18 10 2 4 11 18 23 29 33 36 39 42 44
38 44 36 38 47 49 45 47 52 56 61 63 68 72 75 79 84 81 79 77 76 74 66 62 58 51 43 35 27 20 13 6 1 7 13 19 23 25 28 31 36 39 42 45
20 24 24 28 38 47 48 51 53 56 61 68 77 81 79 80 83 85 82 77 74 72 62 53 46 37 31 24 16 9 3 3 9 14 18 20 23 26 29 32 36 39 42 45
5 10 18 27 31 38 48 49 57 66 71 77 83 87 87 85 83 83 78 74 64 59 53 44 35 27 19 12 7 0 6 10 13 14 17 22 24 27 29 32 35 37 40 42
18 23 29 36 44 49 55 63 71 77 76 80 89 93 91 83 75 70 66 64 55 46 39 32 24 16 9 4 2 6 9 10 13 17 21 23 25 26 28 30 33 35 37 40
31 39 48 55 64 70 69 75 81 85 86 86 87 86 84 76 66 58 49 43 44 35 28 20 14 7 1 3 6 7 10 14 17 20 22 24 26 27 28 30 32 34 36 38
46 54 63 71 79 82 82 81 82 85 88 86 82 75 68 61 50 43 43 36 30 23 16 9 4 2 1 3 7 11 15 17 19 20 22 23 25 27 29 30 32 33 34 35
64 70 78 80 83 87 90 83 84 82 79 72 64 55 48 45 40 31 30 24 19 14 8 5 3 2 4 8 12 14 16 18 19 20 22 24 26 27 29 30 31 33 35 36
79 82 84 88 91 88 82 76 74 68 63 58 51 43 36 30 22 26 20 15 13 10 6 3 2 5 9 11 14 15 17 18 20 21 23 25 27 29 31 32 32 34 36 37
80 81 80 79 76 70 66 61 63 54 46 42 38 32 27 25 22 20 17 13 9 6 3 2 5 8 10 12 14 16 18 20 22 25 27 28 30 31 32 33 34 35 36 37
72 69 66 64 57 51 48 46 44 43 37 32 30 28 24 21 18 15 12 8 5 2 2 5 8 10 12 15 17 20 22 24 26 29 30 32 33 34 34 35 36 37 37 38
Wind_Direction_500mb
260 268 226 241 222 204 216 233 245 270 272 272 281 289 295 294 291 292 279 270 248 218 208 210 209 209 209 211 211 212 211 211 213 214 215 215 216 218 219 219 220 221 222 225
263 256 244 254 243 233 242 240 257 265 270 265 273 276 271 273 274 277 274 262 265 245 230 219 215 213 210 209 210 210 211 211 212 212 212 213 215 216 216 218 219 220 222 226
252 346 290 270 242 228 243 240 238 252 258 282 274 269 268 275 279 277 275 271 259 258 247 230 221 213 211 208 211 209 209 209 210 210 209 211 212 212 212 214 216 218 222 227
254 148 250 354 117 223 233 249 242 252 262 266 266 274 280 287 291 283 277 275 271 267 244 232 223 216 214 212 211 208 206 206 207 207 207 207 206 206 207 212 216 217 219 221
222 211 284 296 258 189 186 255 232 246 258 268 274 278 287 279 279 271 275 276 273 266 237 227 218 211 207 203 202 200 200 202 203 205 204 204 204 205 207 209 209 209 211 213
180 232 246 96 43 118 146 269 254 234 255 272 297 269 287 330 316 305 295 274 233 221 214 211 207 203 198 194 193 193 195 197 201 202 202 200 199 199 200 200 201 199 200 202
223 241 269 212 159 151 208 279 146 284 273 279 240 254 289 305 312 320 312 249 208 191 189 187 188 190 188 186 187 189 191 192 191 191 192 193 191 190 190 188 188 187 189 193
218 236 254 159 126 216 213 188 252 284 306 289 268 274 278 288 294 290 262 185 179 178 173 174 179 182 176 174 175 177 177 176 175 176 177 175 179 173 173 175 176 176 180 183
205 214 275 192 221 225 274 292 292 284 290 295 290 276 263 265 256 234 194 178 173 171 166 163 167 170 168 161 163 164 164 161 162 162 161 161 164 163 163 164 166 167 172 187
156 247 256 259 247 251 263 271 280 284 285 281 273 262 242 227 211 186 167 159 158 157 156 151 153 156 162 156 156 157 154 151 151 153 152 152 154 154 156 156 160 166 182 250
254 265 285 273 263 267 266 271 269 270 271 266 254 242 223 195 181 170 161 153 153 153 150 145 149 148 148 149 154 153 150 147 146 146 145 144 143 142 145 146 156 166 237 273
245 255 241 270 283 291 292 274 276 265 259 253 240 221 202 182 173 166 160 154 150 149 150 145 146 144 144 146 153 151 146 144 143 143 142 141 143 142 143 141 170 276 284 294
267 266 268 277 282 282 283 277 269 258 250 233 219 207 192 173 162 158 153 152 152 149 149 146 145 143 143 146 151 148 144 142 142 142 140 137 132 124 115 148 278 295 299 300
255 259 264 262 261 272 272 261 247 229 221 215 202 190 180 171 160 157 153 153 153 151 148 146 143 139 138 141 145 143 141 139 138 133 126 120 119 146 213 262 280 289 300 304
261 261 259 259 261 256 251 242 226 209 201 189 187 185 178 166 160 155 155 155 152 150 145 144 141 135 138 142 143 138 136 131 126 121 124 145 186 263 299 308 312 312 310 309
275 261 258 250 246 241 232 222 213 191 186 179 175 171 168 165 157 151 148 149 150 143 141 141 138 133 138 141 139 133 126 122 126 141 153 238 309 317 318 315 315 315 318 320
285 262 250 239 230 224 218 210 205 191 178 174 171 167 161 155 150 146 146 147 145 140 140 141 136 137 138 135 131 126 130 138 140 127 332 323 320 317 317 319 321 321 322 324
264 265 265 252 235 216 200 194 188 182 174 167 163 160 157 154 147 143 141 142 139 136 137 137 136 137 134 131 135 139 139 135 10 323 321 318 321 325 326 325 323 323 324 325
274 262 249 219 202 197 184 175 171 168 162 159 156 153 151 147 142 140 141 141 139 138 135 137 134 133 139 142 143 140 130 331 323 324 326 327 328 328 326 326 326 327 328 329
200 182 176 170 174 183 166 161 157 153 154 155 150 145 143 140 141 140 143 140 141 140 138 138 142 144 141 139 142 354 325 326 328 329 328 324 324 327 328 327 328 329 329 328
122 139 145 147 142 144 148 149 149 144 145 147 144 142 141 141 140 141 143 140 139 139 142 143 143 143 147 170 276 323 330 329 330 326 324 325 327 327 326 325 325 325 326 328
125 132 132 135 135 132 135 139 140 140 141 141 138 136 136 137 141 143 139 140 141 142 144 146 147 151 170 328 333 327 325 325 324 324 324 325 326 325 323 321 322 325 327 327
123 126 128 128 128 126 129 130 132 133 132 132 132 134 135 134 136 143 141 142 142 144 147 148 142 129 296 314 322 323 322 323 323 323 322 320 319 318 319 322 324 323 324 326
119 119 119 120 124 124 120 122 125 124 124 125 126 127 129 134 136 138 139 142 146 151 148 136 122 39 332 322 321 321 321 320 319 319 316 314 316 317 318 319 321 321 322 324
115 115 117 119 116 112 117 120 119 118 121 124 125 127 129 130 135 135 138 138 136 132 128 104 13 331 324 320 319 319 318 317 315 314 315 316 316 316 317 318 319 319 320 322
117 115 114 114 114 116 117 121 117 119 121 122 123 123 124 125 126 125 126 128 129 128 112 353 325 322 322 322 319 317 317 317 316 315 315 315 314 315 316 317 317 317 317 318
110 110 110 109 109 113 117 116 117 116 117 117 119 118 117 118 120 121 124 128 131 110 8 340 331 321 316 318 319 319 318 316 314 313 313 313 313 313 314 314 314 315 315 316
Wind_Speed_850mb
20 25 11 14 16 21 31 40 27 43 50 37 29 27 37 51 59 44 33 32 38 50 58 60 69 77 80 83 87 86 80 75 72 71 68 64 63 61 57 54 51 49 46 45
10 23 24 29 31 27 43 43 49 49 71 45 59 69 67 74 71 60 51 48 46 50 65 74 75 78 79 81 82 83 81 77 73 67 64 63 61 58 56 54 52 50 49 46
13 4 16 29 40 48 43 37 46 45 69 40 46 46 54 65 59 53 56 53 52 55 64 73 78 80 82 83 82 81 80 76 72 66 63 62 58 55 54 53 52 51 48 45
5 4 17 2 4 15 40 43 40 52 58 52 55 76 70 58 51 57 62 60 58 49 53 65 74 72 77 77 80 79 79 75 71 67 63 60 57 55 55 54 50 46 43 42
10 19 25 33 20 15 16 22 37 45 49 45 58 49 56 53 44 47 49 48 43 38 45 53 63 63 68 70 70 71 73 72 69 67 65 63 61 57 54 50 47 44 41 38
11 12 18 5 6 16 9 16 25 24 34 31 15 12 17 22 24 23 23 16 20 29 38 43 54 61 67 70 71 71 71 68 65 63 61 60 58 56 51 46 43 40 37 33
31 24 18 11 14 15 6 9 2 1 8 18 11 12 21 25 22 18 11 6 13 21 31 37 49 60 67 68 67 65 63 60 58 56 57 56 55 50 47 44 40 36 32 28
19 15 35 22 16 18 5 4 7 8 20 15 19 26 23 22 15 10 5 7 14 23 31 39 45 52 58 59 57 56 55 54 55 55 54 53 50 48 43 40 37 33 29 24
22 16 3 22 32 40 24 23 23 21 26 31 27 22 18 15 11 8 8 12 19 26 31 34 37 42 52 51 51 54 55 58 58 57 55 52 49 48 44 38 32 27 22 14
7 27 32 36 42 48 49 58 54 49 38 34 28 25 19 17 13 12 15 20 26 33 40 43 43 46 44 53 54 56 60 60 59 57 57 52 48 42 37 32 26 18 10 4
22 35 31 59 50 47 53 63 69 72 54 36 31 27 22 20 20 21 25 32 38 44 50 55 54 52 53 55 57 61 62 63 61 57 52 49 43 36 28 21 13 7 5 12
23 25 18 40 45 52 44 48 57 55 51 36 32 29 28 25 27 31 37 44 49 51 54 61 60 62 62 59 55 59 64 62 58 55 50 42 34 30 21 11 2 8 14 19
37 76 65 77 71 79 62 52 49 44 42 33 29 32 33 35 37 41 47 53 56 62 65 69 68 68 66 62 57 57 59 58 53 46 41 34 26 17 9 2 7 15 21 26
80 90 75 89 58 58 56 43 37 33 32 31 36 39 43 46 48 53 56 59 64 69 71 70 70 68 62 57 54 53 52 49 43 38 30 22 15 8 6 9 15 20 27 35
89 90 79 70 58 56 52 47 40 38 35 35 36 43 48 55 62 63 63 66 69 69 71 71 71 70 60 53 51 50 46 41 32 26 19 12 7 6 13 20 28 36 42 44
53 52 63 67 69 58 51 48 50 48 48 48 49 52 58 63 66 64 65 67 72 75 73 70 69 66 57 50 46 41 35 28 20 14 8 1 7 15 23 30 36 41 45 48
25 29 40 48 54 53 52 49 53 57 57 60 63 61 64 71 76 77 76 71 72 74 70 66 67 61 53 44 36 30 24 18 10 2 4 11 18 23 29 33 36 39 42 44
38 44 36 38 47 49 45 47 52 56 61 63 68 72 75 79 84 81 79 77 76 74 66 62 58 51 43 35 27 20 13 6 1 7 13 19 23 25 28 31 36 39 42 45
20 24 24 28 38 47 48 51 53 56 61 68 77 81 79 80 83 85 82 77 74 72 62 53 46 37 31 24 16 9 3 3 9 14 18 20 23 26 29 32 36 39 42 45
5 10 18 27 31 38 48 49 57 66 71 77 83 87 87 85 83 83 78 74 64 59 53 44 35 27 19 12 7 0 6 10 13 14 17 22 24 27 29 32 35 37 40 42
18 23 29 36 44 49 55 63 71 77 76 80 89 93 91 83 75 70 66 64 55 46 39 32 24 16 9 4 2 6 9 10 13 17 21 23 25 26 28 30 33 35 37 40
31 39 48 55 64 70 69 75 81 85 86 86 87 86 84 76 66 58 49 43 44 35 28 20 14 7 1 3 6 7 10 14 17 20 22 24 26 27 28 30 32 34 36 38
46 54 63 71 79 82 82 81 82 85 88 86 82 75 68 61 50 43 43 36 30 23 16 9 4 2 1 3 7 11 15 17 19 20 22 23 25 27 29 30 32 33 34 35
64 70 78 80 83 87 90 83 84 82 79 72 64 55 48 45 40 31 30 24 19 14 8 5 3 2 4 8 12 14 16 18 19 20 22 24 26 27 29 30 31 33 35 36
79 82 84 88 91 88 82 76 74 68 63 58 51 43 36 30 22 26 20 15 13 10 6 3 2 5 9 11 14 15 17 18 20 21 23 25 27 29 31 32 32 34 36 37
80 81 80 79 76 70 66 61 63 54 46 42 38 32 27 25 22 20 17 13 9 6 3 2 5 8 10 12 14 16 18 20 22 25 27 28 30 31 32 33 34 35 36 37
72 69 66 64 57 51 48 46 44 43 37 32 30 28 24 21 18 15 12 8 5 2 2 5 8 10 12 15 17 20 22 24 26 29 30 32 33 34 34 35 36 37 37 38
Wind_Direction_850mb
260 268 226 241 222 204 216 233 245 270 272 272 281 289 295 294 291 292 279 270 248 218 208 210 209 209 209 211 211 212 211 211 213 214 215 215 216 218 219 219 220 221 222 225
263 256 244 254 243 233 242 240 257 265 270 265 273 276 271 273 274 277 274 262 265 245 230 219 215 213 210 209 210 210 211 211 212 212 212 213 215 216 216 218 219 220 222 226
252 346 290 270 242 228 243 240 238 252 258 282 274 269 268 275 279 277 275 271 259 258 247 230 221 213 211 208 211 209 209 209 210 210 209 211 212 212 212 214 216 218 222 227
254 148 250 354 117 223 233 249 242 252 262 266 266 274 280 287 291 283 277 275 271 267 244 232 223 216 214 212 211 208 206 206 207 207 207 207 206 206 207 212 216 217 219 221
222 211 284 296 258 189 186 255 232 246 258 268 274 278 287 279 279 271 275 276 273 266 237 227 218 211 207 203 202 200 200 202 203 205 204 204 204 205 207 209 209 209 211 213
180 232 246 96 43 118 146 269 254 234 255 272 297 269 287 330 316 305 295 274 233 221 214 211 207 203 198 194 193 193 195 197 201 202 202 200 199 199 200 200 201 199 200 202
223 241 269 212 159 151 208 279 146 284 273 279 240 254 289 305 312 320 312 249 208 191 189 187 188 190 188 186 187 189 191 192 191 191 192 193 191 190 190 188 188 187 189 193
218 236 254 159 126 216 213 188 252 284 306 289 268 274 278 288 294 290 262 185 179 178 173 174 179 182 176 174 175 177 177 176 175 176 177 175 179 173 173 175 176 176 180 183
205 214 275 192 221 225 274 292 292 284 290 295 290 276 263 265 256 234 194 178 173 171 166 163 167 170 168 161 163 164 164 161 162 162 161 161 164 163 163 164 166 167 172 187
156 247 256 259 247 251 263 271 280 284 285 281 273 262 242 227 211 186 167 159 158 157 156 151 153 156 162 156 156 157 154 151 151 153 152 152 154 154 156 156 160 166 182 250
254 265 285 273 263 267 266 271 269 270 271 266 254 242 223 195 181 170 161 153 153 153 150 145 149 148 148 149 154 153 150 147 146 146 145 144 143 142 145 146 156 166 237 273
245 255 241 270 283 291 292 274 276 265 259 253 240 221 202 182 173 166 160 154 150 149 150 145 146 144 144 146 153 151 146 144 143 143 142 141 143 142 143 141 170 276 284 294
267 266 268 277 282 282 283 277 269 258 250 233 219 207 192 173 162 158 153 152 152 149 149 146 145 143 143 146 151 148 144 142 142 142 140 137 132 124 115 148 278 295 299 300
255 259 264 262 261 272 272 261 247 229 221 215 202 190 180 171 160 157 153 153 153 151 148 146 143 139 138 141 145 143 141 139 138 133 126 120 119 146 213 262 280 289 300 304
261 261 259 259 261 256 251 242 226 209 201 189 187 185 178 166 160 155 155 155 152 150 145 144 141 135 138 142 143 138 136 131 126 121 124 145 186 263 299 308 312 312 310 309
275 261 258 250 246 241 232 222 213 191 186 179 175 171 168 165 157 151 148 149 150 143 141 141 138 133 138 141 139 133 126 122 126 141 153 238 309 317 318 315 315 315 318 320
285 262 250 239 230 224 218 210 205 191 178 174 171 167 161 155 150 146 146 147 145 140 140 141 136 137 138 135 131 126 130 138 140 127 332 323 320 317 317 319 321 321 322 324
264 265 265 252 235 216 200 194 188 182 174 167 163 160 157 154 147 143 141 142 139 136 137 137 136 137 134 131 135 139 139 135 10 323 321 318 321 325 326 325 323 323 324 325
274 262 249 219 202 197 184 175 171 168 162 159 156 153 151 147 142 140 141 141 139 138 135 137 134 133 139 142 143 140 130 331 323 324 326 327 328 328 326 326 326 327 328 329
200 182 176 170 174 183 166 161 157 153 154 155 150 145 143 140 141 140 143 140 141 140 138 138 142 144 141 139 142 354 325 326 328 329 328 324 324 327 328 327 328 329 329 328
122 139 145 147 142 144 148 149 149 144 145 147 144 142 141 141 140 141 143 140 139 139 142 143 143 143 147 170 276 323 330 329 330 326 324 325 327 327 326 325 325 325 326 328
125 132 132 135 135 132 135 139 140 140 141 141 138 136 136 137 141 143 139 140 141 142 144 146 147 151 170 328 333 327 325 325 324 324 324 325 326 325 323 321 322 325 327 327
123 126 128 128 128 126 129 130 132 133 132 132 132 134 135 134 136 143 141 142 142 144 147 148 142 129 296 314 322 323 322 323 323 323 322 320 319 318 319 322 324 323 324 326
119 119 119 120 124 124 120 122 125 124 124 125 126 127 129 134 136 138 139 142 146 151 148 136 122 39 332 322 321 321 321 320 319 319 316 314 316 317 318 319 321 321 322 324
115 115 117 119 116 112 117 120 119 118 121 124 125 127 129 130 135 135 138 138 136 132 128 104 13 331 324 320 319 319 318 317 315 314 315 316 316 316 317 318 319 319 320 322
117 115 114 114 114 116 117 121 117 119 121 122 123 123 124 125 126 125 126 128 129 128 112 353 325 322 322 322 319 317 317 317 316 315 315 315 314 315 316 317 317 317 317 318
110 110 110 109 109 113 117 116 117 116 117 117 119 118 117 118 120 121 124 128 131 110 8 340 331 321 316 318 319 319 318 316 314 313 313 313 313 313 314 314 314 315 315 316